Time,TemperatureF,DewpointF,PressureIn,WindDirection,WindDirectionDegrees,WindSpeedMPH,WindSpeedGustMPH,Humidity,HourlyPrecipIn,Conditions,Clouds,dailyrainin,SoftwareType,DateUTC
2013-07-20 00:05:00,68.1,63.4,29.92,NNW,330,0.0,0.0,85,0.00,,CLR,0.00,VWS V14.01,2013-07-20 05:05:00,
2013-07-20 00:10:00,67.9,63.6,29.91,NNW,330,0.0,0.0,86,0.00,,CLR,0.00,VWS V14.01,2013-07-20 05:10:00,
2013-07-20 00:15:00,67.6,63.3,29.92,NNW,330,0.0,0.0,86,0.00,,CLR,0.00,VWS V14.01,2013-07-20 05:15:00,
2013-07-20 00:21:00,67.3,63.3,29.92,NNW,330,0.0,0.0,87,0.00,,CLR,0.00,VWS V14.01,2013-07-20 05:21:00,
2013-07-20 00:26:00,67.0,63.0,29.92,NNW,330,0.0,0.0,87,0.00,,CLR,0.00,VWS V14.01,2013-07-20 05:26:00,
2013-07-20 00:31:00,66.8,62.8,29.91,NNW,330,0.0,0.0,87,0.00,,CLR,0.00,VWS V14.01,2013-07-20 05:31:00,
2013-07-20 00:37:00,66.7,63.0,29.91,NNW,330,0.0,0.0,88,0.00,,CLR,0.00,VWS V14.01,2013-07-20 05:37:00,
2013-07-20 00:43:00,66.7,63.0,29.91,NNW,330,0.0,0.0,88,0.00,,CLR,0.00,VWS V14.01,2013-07-20 05:43:00,
2013-07-20 00:48:00,66.7,63.4,29.92,NNW,328,0.0,0.0,89,0.00,,CLR,0.00,VWS V14.01,2013-07-20 05:48:00,
2013-07-20 00:53:00,66.8,63.1,29.91,NW,325,0.0,0.0,88,0.00,,CLR,0.00,VWS V14.01,2013-07-20 05:53:00,
2013-07-20 00:58:00,66.9,63.2,29.91,NW,325,0.0,0.0,88,0.00,,CLR,0.00,VWS V14.01,2013-07-20 05:58:00,
2013-07-20 01:04:00,66.8,63.1,29.91,NW,325,0.0,0.0,88,0.00,,CLR,0.00,VWS V14.01,2013-07-20 06:04:00,
2013-07-20 01:09:00,66.8,62.8,29.92,NW,325,0.0,0.0,87,0.00,,CLR,0.00,VWS V14.01,2013-07-20 06:09:00,
2013-07-20 01:14:00,66.7,62.4,29.91,NW,325,0.0,0.0,86,0.00,,CLR,0.00,VWS V14.01,2013-07-20 06:14:00,
2013-07-20 01:19:00,66.6,62.6,29.91,NW,325,0.0,0.0,87,0.00,,CLR,0.00,VWS V14.01,2013-07-20 06:19:00,
2013-07-20 01:24:00,66.5,62.2,29.91,NW,325,0.0,0.0,86,0.00,,CLR,0.00,VWS V14.01,2013-07-20 06:24:00,
2013-07-20 01:29:00,66.3,62.0,29.91,NW,325,0.0,0.0,86,0.00,,CLR,0.00,VWS V14.01,2013-07-20 06:29:00,
2013-07-20 01:35:00,66.2,61.9,29.91,NW,325,0.0,0.0,86,0.00,,CLR,0.00,VWS V14.01,2013-07-20 06:35:00,
2013-07-20 01:40:00,66.1,62.1,29.91,NW,325,0.0,0.0,87,0.00,,CLR,0.00,VWS V14.01,2013-07-20 06:40:00,
2013-07-20 01:46:00,66.0,62.3,29.91,NW,325,0.0,0.0,88,0.00,,CLR,0.00,VWS V14.01,2013-07-20 06:46:00,
2013-07-20 01:51:00,65.8,62.2,29.91,NW,325,0.0,0.0,88,0.00,,CLR,0.00,VWS V14.01,2013-07-20 06:51:00,
2013-07-20 01:57:00,65.7,62.4,29.91,NW,325,0.0,0.0,89,0.00,,CLR,0.00,VWS V14.01,2013-07-20 06:57:00,
2013-07-20 02:02:00,65.6,62.3,29.91,NW,325,0.0,0.0,89,0.00,,CLR,0.00,VWS V14.01,2013-07-20 07:02:00,
2013-07-20 02:07:00,65.5,62.2,29.91,NW,325,0.0,0.0,89,0.00,,CLR,0.00,VWS V14.01,2013-07-20 07:07:00,
2013-07-20 02:12:00,65.4,62.4,29.91,NW,325,0.0,0.0,90,0.00,,CLR,0.00,VWS V14.01,2013-07-20 07:12:00,
2013-07-20 02:17:00,65.3,62.3,29.91,NW,325,0.0,0.0,90,0.00,,CLR,0.00,VWS V14.01,2013-07-20 07:17:00,
2013-07-20 02:22:00,65.2,62.2,29.91,NW,325,0.0,0.0,90,0.00,,CLR,0.00,VWS V14.01,2013-07-20 07:22:00,
2013-07-20 02:27:00,65.0,62.0,29.91,NW,325,0.0,0.0,90,0.00,,CLR,0.00,VWS V14.01,2013-07-20 07:27:00,
2013-07-20 02:32:00,64.9,62.2,29.91,NW,325,0.0,0.0,91,0.00,,CLR,0.00,VWS V14.01,2013-07-20 07:32:00,
2013-07-20 02:38:00,64.8,62.1,29.91,NW,325,0.0,0.0,91,0.00,,CLR,0.00,VWS V14.01,2013-07-20 07:38:00,
2013-07-20 02:43:00,64.7,62.0,29.91,NW,325,0.0,0.0,91,0.00,,CLR,0.00,VWS V14.01,2013-07-20 07:43:00,
2013-07-20 02:48:00,64.6,61.9,29.91,NW,325,0.0,0.0,91,0.00,,CLR,0.00,VWS V14.01,2013-07-20 07:48:00,
2013-07-20 02:53:00,64.5,61.8,29.91,NW,325,0.0,0.0,91,0.00,,CLR,0.00,VWS V14.01,2013-07-20 07:53:00,
2013-07-20 02:58:00,64.5,61.8,29.90,NW,325,0.0,0.0,91,0.00,,CLR,0.00,VWS V14.01,2013-07-20 07:58:00,
2013-07-20 03:04:00,64.7,62.0,29.91,NW,325,0.0,0.0,91,0.00,,SCT090,0.00,VWS V14.01,2013-07-20 08:04:00,
2013-07-20 03:09:00,64.6,61.9,29.90,NW,325,0.0,0.0,91,0.00,,SCT090,0.00,VWS V14.01,2013-07-20 08:09:00,
2013-07-20 03:14:00,64.6,61.9,29.90,NW,325,0.0,0.0,91,0.00,,SCT090,0.00,VWS V14.01,2013-07-20 08:14:00,
2013-07-20 03:19:00,64.5,61.8,29.90,NW,325,0.0,0.0,91,0.00,,SCT090,0.00,VWS V14.01,2013-07-20 08:19:00,
2013-07-20 03:24:00,64.4,61.7,29.90,NW,325,0.0,0.0,91,0.00,,CLR,0.00,VWS V14.01,2013-07-20 08:24:00,
2013-07-20 03:29:00,64.3,61.9,29.90,NW,325,0.0,0.0,92,0.00,,CLR,0.00,VWS V14.01,2013-07-20 08:29:00,
2013-07-20 03:35:00,64.1,61.4,29.90,NW,325,0.0,0.0,91,0.00,,CLR,0.00,VWS V14.01,2013-07-20 08:35:00,
2013-07-20 03:41:00,64.0,61.6,29.90,NW,325,0.0,0.0,92,0.00,,CLR,0.00,VWS V14.01,2013-07-20 08:41:00,
2013-07-20 03:46:00,63.9,61.5,29.90,NW,325,0.0,0.0,92,0.00,,CLR,0.00,VWS V14.01,2013-07-20 08:46:00,
2013-07-20 03:51:00,63.9,61.5,29.90,NW,325,0.0,0.0,92,0.00,,CLR,0.00,VWS V14.01,2013-07-20 08:51:00,
2013-07-20 03:56:00,63.7,61.3,29.90,NW,325,0.0,0.0,92,0.00,,CLR,0.00,VWS V14.01,2013-07-20 08:56:00,
2013-07-20 04:01:00,63.6,61.2,29.90,NW,325,0.0,0.0,92,0.00,,CLR,0.00,VWS V14.01,2013-07-20 09:01:00,
2013-07-20 04:06:00,63.6,61.2,29.90,NW,325,0.0,0.0,92,0.00,,CLR,0.00,VWS V14.01,2013-07-20 09:06:00,
2013-07-20 04:11:00,63.6,61.2,29.90,NW,325,0.0,0.0,92,0.00,,CLR,0.00,VWS V14.01,2013-07-20 09:11:00,
2013-07-20 04:16:00,63.5,61.1,29.90,NW,325,0.0,0.0,92,0.00,,CLR,0.00,VWS V14.01,2013-07-20 09:16:00,
2013-07-20 04:21:00,63.5,61.1,29.90,NW,325,0.0,0.0,92,0.00,,CLR,0.00,VWS V14.01,2013-07-20 09:21:00,
2013-07-20 04:27:00,63.6,61.2,29.90,NW,325,0.0,0.0,92,0.00,,CLR,0.00,VWS V14.01,2013-07-20 09:27:00,
2013-07-20 04:32:00,63.5,61.1,29.91,NW,325,0.0,0.0,92,0.00,,CLR,0.00,VWS V14.01,2013-07-20 09:32:00,
2013-07-20 04:37:00,63.5,61.1,29.90,NW,325,0.0,0.0,92,0.00,,CLR,0.00,VWS V14.01,2013-07-20 09:37:00,
2013-07-20 04:43:00,63.4,61.0,29.91,NW,325,0.0,0.0,92,0.00,,CLR,0.00,VWS V14.01,2013-07-20 09:43:00,
2013-07-20 04:48:00,63.4,61.0,29.91,NW,325,0.0,0.0,92,0.00,,CLR,0.00,VWS V14.01,2013-07-20 09:48:00,
2013-07-20 04:54:00,63.2,60.8,29.91,NW,325,0.0,0.0,92,0.00,,CLR,0.00,VWS V14.01,2013-07-20 09:54:00,
2013-07-20 04:59:00,63.1,60.7,29.90,NW,325,0.0,0.0,92,0.00,,CLR,0.00,VWS V14.01,2013-07-20 09:59:00,
2013-07-20 05:04:00,63.1,60.7,29.90,NW,325,0.0,0.0,92,0.00,,CLR,0.00,VWS V14.01,2013-07-20 10:04:00,
2013-07-20 05:09:00,63.0,60.6,29.91,NW,325,0.0,0.0,92,0.00,,CLR,0.00,VWS V14.01,2013-07-20 10:09:00,
2013-07-20 05:14:00,62.9,60.5,29.91,NW,325,0.0,0.0,92,0.00,,CLR,0.00,VWS V14.01,2013-07-20 10:14:00,
2013-07-20 05:19:00,62.9,60.8,29.91,NW,325,0.0,0.0,93,0.00,,CLR,0.00,VWS V14.01,2013-07-20 10:19:00,
2013-07-20 05:24:00,62.8,60.8,29.91,NW,325,0.0,0.0,93,0.00,,CLR,0.00,VWS V14.01,2013-07-20 10:24:00,
2013-07-20 05:30:00,62.7,60.7,29.91,NW,325,0.0,0.0,93,0.00,,CLR,0.00,VWS V14.01,2013-07-20 10:30:00,
2013-07-20 05:35:00,62.7,60.7,29.91,NW,325,0.0,0.0,93,0.00,,CLR,0.00,VWS V14.01,2013-07-20 10:35:00,
2013-07-20 05:40:00,62.6,60.5,29.91,NW,325,0.0,0.0,93,0.00,,CLR,0.00,VWS V14.01,2013-07-20 10:40:00,
2013-07-20 05:45:00,62.5,60.5,29.91,NW,325,0.0,0.0,93,0.00,,CLR,0.00,VWS V14.01,2013-07-20 10:45:00,
2013-07-20 05:51:00,62.5,60.5,29.92,NW,325,0.0,0.0,93,0.00,,CLR,0.00,VWS V14.01,2013-07-20 10:51:00,
2013-07-20 05:56:00,62.4,60.3,29.92,NW,325,0.0,0.0,93,0.00,,CLR,0.00,VWS V14.01,2013-07-20 10:56:00,
2013-07-20 06:01:00,62.3,60.2,29.92,NW,325,0.0,0.0,93,0.00,,CLR,0.00,VWS V14.01,2013-07-20 11:01:00,
2013-07-20 06:07:00,62.4,60.7,29.92,NW,325,0.0,0.0,94,0.00,,CLR,0.00,VWS V14.01,2013-07-20 11:07:00,
2013-07-20 06:12:00,62.4,60.7,29.93,NW,325,0.0,0.0,94,0.00,,CLR,0.00,VWS V14.01,2013-07-20 11:12:00,
2013-07-20 06:17:00,62.5,60.8,29.93,NW,325,0.0,0.0,94,0.00,,CLR,0.00,VWS V14.01,2013-07-20 11:17:00,
2013-07-20 06:23:00,62.5,60.8,29.93,NW,325,0.0,0.0,94,0.00,,CLR,0.00,VWS V14.01,2013-07-20 11:23:00,
2013-07-20 06:28:00,62.5,60.8,29.93,NW,325,0.0,0.0,94,0.00,,CLR,0.00,VWS V14.01,2013-07-20 11:28:00,
2013-07-20 06:33:00,62.6,61.5,29.93,NW,325,0.0,0.0,96,0.00,,CLR,0.00,VWS V14.01,2013-07-20 11:33:00,
2013-07-20 06:39:00,62.6,60.8,29.92,NW,325,0.0,0.0,94,0.00,,CLR,0.00,VWS V14.01,2013-07-20 11:39:00,
2013-07-20 06:45:00,62.7,61.0,29.93,NW,325,0.0,0.0,94,0.00,,CLR,0.00,VWS V14.01,2013-07-20 11:45:00,
2013-07-20 06:50:00,62.7,61.0,29.93,NW,325,0.0,0.0,94,0.00,,CLR,0.00,VWS V14.01,2013-07-20 11:50:00,
2013-07-20 06:55:00,62.9,61.2,29.93,NW,325,0.0,0.0,94,0.00,,CLR,0.00,VWS V14.01,2013-07-20 11:55:00,
2013-07-20 07:00:00,62.9,61.2,29.94,NW,325,0.0,0.0,94,0.00,,BKN110,0.00,VWS V14.01,2013-07-20 12:00:00,
2013-07-20 07:05:00,63.0,61.0,29.94,NW,325,0.0,0.0,93,0.00,,BKN110,0.00,VWS V14.01,2013-07-20 12:05:00,
2013-07-20 07:10:00,63.2,61.2,29.94,NW,325,0.0,0.0,93,0.00,,BKN110,0.00,VWS V14.01,2013-07-20 12:10:00,
2013-07-20 07:15:00,63.5,61.4,29.94,NW,325,0.0,0.0,93,0.00,,BKN110,0.00,VWS V14.01,2013-07-20 12:15:00,
2013-07-20 07:21:00,63.8,61.7,29.94,NW,325,0.0,0.0,93,0.00,,BKN100,0.00,VWS V14.01,2013-07-20 12:21:00,
2013-07-20 07:26:00,64.2,62.1,29.94,NW,325,0.0,0.0,93,0.00,,BKN100,0.00,VWS V14.01,2013-07-20 12:26:00,
2013-07-20 07:31:00,64.6,62.5,29.94,NW,325,0.0,0.0,93,0.00,,BKN100,0.00,VWS V14.01,2013-07-20 12:31:00,
2013-07-20 07:36:00,64.9,62.8,29.94,NW,325,0.0,0.0,93,0.00,,BKN100,0.00,VWS V14.01,2013-07-20 12:36:00,
2013-07-20 07:41:00,65.2,62.8,29.94,NW,325,0.0,0.0,92,0.00,,BKN100,0.00,VWS V14.01,2013-07-20 12:41:00,
2013-07-20 07:46:00,65.5,63.1,29.94,NW,325,0.0,0.0,92,0.00,,BKN100,0.00,VWS V14.01,2013-07-20 12:46:00,
2013-07-20 07:51:00,65.7,63.0,29.95,NW,325,0.0,0.0,91,0.00,,BKN100,0.00,VWS V14.01,2013-07-20 12:51:00,
2013-07-20 07:56:00,65.9,63.2,29.95,NW,325,0.0,1.0,91,0.00,,BKN100,0.00,VWS V14.01,2013-07-20 12:56:00,
2013-07-20 08:02:00,66.1,63.4,29.94,NW,325,0.0,0.0,91,0.00,,SCT100,0.00,VWS V14.01,2013-07-20 13:02:00,
2013-07-20 08:08:00,66.2,63.2,29.95,WNW,290,0.0,1.0,90,0.00,,SCT100,0.00,VWS V14.01,2013-07-20 13:08:00,
2013-07-20 08:13:00,66.5,63.5,29.94,WNW,301,0.0,1.0,90,0.00,,SCT100,0.00,VWS V14.01,2013-07-20 13:13:00,
2013-07-20 08:18:00,66.7,63.7,29.94,WNW,301,0.0,0.0,90,0.00,,SCT100,0.00,VWS V14.01,2013-07-20 13:18:00,
2013-07-20 08:23:00,66.8,63.5,29.94,WNW,302,0.0,0.0,89,0.00,,CLR,0.00,VWS V14.01,2013-07-20 13:23:00,
2013-07-20 08:28:00,67.0,63.7,29.94,NW,314,0.0,0.0,89,0.00,,CLR,0.00,VWS V14.01,2013-07-20 13:28:00,
2013-07-20 08:33:00,67.2,63.5,29.94,NW,314,0.0,0.0,88,0.00,,CLR,0.00,VWS V14.01,2013-07-20 13:33:00,
2013-07-20 08:38:00,67.4,63.7,29.94,NW,314,0.0,0.0,88,0.00,,CLR,0.00,VWS V14.01,2013-07-20 13:38:00,
2013-07-20 08:43:00,67.4,64.1,29.95,NW,314,0.0,0.0,89,0.00,,CLR,0.00,VWS V14.01,2013-07-20 13:43:00,
2013-07-20 08:48:00,67.5,64.2,29.95,NW,310,0.0,0.0,89,0.00,,CLR,0.00,VWS V14.01,2013-07-20 13:48:00,
2013-07-20 08:53:00,67.7,64.3,29.95,NW,310,0.0,0.0,89,0.00,,CLR,0.00,VWS V14.01,2013-07-20 13:53:00,
2013-07-20 08:58:00,68.0,64.6,29.95,NW,310,0.0,0.0,89,0.00,,CLR,0.00,VWS V14.01,2013-07-20 13:58:00,
2013-07-20 09:04:00,68.1,64.7,29.95,NW,310,0.0,0.0,89,0.00,,SCT100,0.00,VWS V14.01,2013-07-20 14:04:00,
2013-07-20 09:09:00,68.4,64.7,29.95,NW,310,0.0,0.0,88,0.00,,SCT100,0.00,VWS V14.01,2013-07-20 14:09:00,
2013-07-20 09:14:00,68.5,64.5,29.96,NW,310,0.0,0.0,87,0.00,,SCT100,0.00,VWS V14.01,2013-07-20 14:14:00,
2013-07-20 09:19:00,68.8,65.1,29.96,NW,310,0.0,1.0,88,0.00,,SCT100,0.00,VWS V14.01,2013-07-20 14:19:00,
2013-07-20 09:24:00,68.8,64.8,29.96,NW,310,0.0,0.0,87,0.00,,CLR,0.00,VWS V14.01,2013-07-20 14:24:00,
2013-07-20 09:29:00,69.1,65.4,29.96,NW,310,0.0,0.0,88,0.00,,CLR,0.00,VWS V14.01,2013-07-20 14:29:00,
2013-07-20 09:34:00,69.2,64.5,29.96,NW,310,0.0,0.0,85,0.00,,CLR,0.00,VWS V14.01,2013-07-20 14:34:00,
2013-07-20 09:39:00,69.4,64.7,29.96,NW,310,0.0,0.0,85,0.00,,CLR,0.00,VWS V14.01,2013-07-20 14:39:00,
2013-07-20 09:44:00,69.6,65.2,29.96,NW,310,0.0,0.0,86,0.00,,SCT090,0.00,VWS V14.01,2013-07-20 14:44:00,
2013-07-20 09:49:00,69.8,65.1,29.96,NW,310,0.0,0.0,85,0.00,,SCT090,0.00,VWS V14.01,2013-07-20 14:49:00,
2013-07-20 09:54:00,70.0,65.6,29.96,NW,310,0.0,0.0,86,0.00,,SCT090,0.00,VWS V14.01,2013-07-20 14:54:00,
2013-07-20 09:59:00,70.2,65.5,29.96,NW,310,0.0,0.0,85,0.00,,SCT090,0.00,VWS V14.01,2013-07-20 14:59:00,
2013-07-20 10:04:00,70.3,65.6,29.95,NW,310,0.0,0.0,85,0.00,,-RA,0.00,VWS V14.01,2013-07-20 15:04:00,
2013-07-20 10:09:00,70.5,66.1,29.95,NW,310,0.0,0.0,86,0.00,,-RA,0.00,VWS V14.01,2013-07-20 15:09:00,
2013-07-20 10:14:00,70.6,65.9,29.95,NW,310,0.0,0.0,85,0.00,,-RA,0.00,VWS V14.01,2013-07-20 15:14:00,
2013-07-20 10:19:00,70.7,66.0,29.95,NW,310,0.0,0.0,85,0.00,,-RA,0.00,VWS V14.01,2013-07-20 15:19:00,
2013-07-20 10:24:00,70.6,65.5,29.95,NW,310,0.0,0.0,84,0.00,,-RA,0.00,VWS V14.01,2013-07-20 15:24:00,
2013-07-20 10:29:00,70.5,65.8,29.95,NW,310,0.0,0.0,85,0.00,,-RA,0.00,VWS V14.01,2013-07-20 15:29:00,
2013-07-20 10:34:00,70.7,66.3,29.95,NW,310,0.0,0.0,86,0.00,,-RA,0.00,VWS V14.01,2013-07-20 15:34:00,
2013-07-20 10:39:00,70.9,66.2,29.95,NW,310,0.0,0.0,85,0.00,,-RA,0.00,VWS V14.01,2013-07-20 15:39:00,
2013-07-20 10:44:00,71.1,65.7,29.95,SSW,202,0.0,3.0,83,0.00,,SCT110,0.00,VWS V14.01,2013-07-20 15:44:00,
2013-07-20 10:49:00,71.4,66.0,29.96,SSW,202,0.0,0.0,83,0.00,,SCT110,0.00,VWS V14.01,2013-07-20 15:49:00,
2013-07-20 10:54:00,72.0,66.9,29.96,SSW,202,0.0,0.0,84,0.00,,SCT110,0.00,VWS V14.01,2013-07-20 15:54:00,
2013-07-20 10:59:00,72.6,66.8,29.96,SSW,201,1.0,2.0,82,0.00,,SCT110,0.00,VWS V14.01,2013-07-20 15:59:00,
2013-07-20 11:04:00,73.1,67.3,29.95,SSW,201,0.0,0.0,82,0.00,,CLR,0.00,VWS V14.01,2013-07-20 16:04:00,
2013-07-20 11:10:00,73.8,67.2,29.96,WSW,250,0.0,0.0,80,0.00,,CLR,0.00,VWS V14.01,2013-07-20 16:10:00,
2013-07-20 11:15:00,74.0,66.0,29.95,WSW,250,0.0,0.0,76,0.00,,CLR,0.00,VWS V14.01,2013-07-20 16:15:00,
2013-07-20 11:20:00,74.4,67.5,29.95,WSW,250,0.0,0.0,79,0.00,,CLR,0.00,VWS V14.01,2013-07-20 16:20:00,
2013-07-20 11:25:00,74.8,66.7,29.95,WSW,253,3.0,3.0,76,0.00,,CLR,0.00,VWS V14.01,2013-07-20 16:25:00,
2013-07-20 11:30:00,74.9,66.4,29.95,WSW,253,0.0,0.0,75,0.00,,CLR,0.00,VWS V14.01,2013-07-20 16:30:00,
2013-07-20 11:35:00,75.1,68.2,29.95,WSW,253,0.0,1.0,79,0.00,,CLR,0.00,VWS V14.01,2013-07-20 16:35:00,
2013-07-20 11:41:00,75.4,67.3,29.96,WSW,258,0.0,0.0,76,0.00,,CLR,0.00,VWS V14.01,2013-07-20 16:41:00,
2013-07-20 11:46:00,75.5,67.4,29.95,WSW,258,0.0,0.0,76,0.00,,CLR,0.00,VWS V14.01,2013-07-20 16:46:00,
2013-07-20 11:51:00,75.4,66.9,29.95,WSW,258,0.0,0.0,75,0.00,,CLR,0.00,VWS V14.01,2013-07-20 16:51:00,
2013-07-20 11:56:00,75.3,68.0,29.96,WSW,258,0.0,0.0,78,0.00,,CLR,0.00,VWS V14.01,2013-07-20 16:56:00,
2013-07-20 12:01:00,75.5,67.0,29.96,WSW,258,0.0,0.0,75,0.00,,CLR,0.00,VWS V14.01,2013-07-20 17:01:00,
2013-07-20 12:07:00,75.5,67.8,29.96,West,267,0.0,0.0,77,0.00,,CLR,0.00,VWS V14.01,2013-07-20 17:07:00,
2013-07-20 12:12:00,76.1,68.8,29.96,West,267,1.0,1.0,78,0.00,,CLR,0.00,VWS V14.01,2013-07-20 17:12:00,
2013-07-20 12:17:00,76.5,68.0,29.96,West,267,0.0,0.0,75,0.00,,CLR,0.00,VWS V14.01,2013-07-20 17:17:00,
2013-07-20 12:22:00,77.0,68.5,29.96,West,267,0.0,0.0,75,0.00,,SCT025,0.00,VWS V14.01,2013-07-20 17:22:00,
2013-07-20 12:27:00,77.6,68.7,29.95,West,267,0.0,0.0,74,0.00,,SCT025,0.00,VWS V14.01,2013-07-20 17:27:00,
2013-07-20 12:32:00,77.9,69.3,29.96,West,275,0.0,0.0,75,0.00,,SCT025,0.00,VWS V14.01,2013-07-20 17:32:00,
2013-07-20 12:37:00,78.1,69.9,29.96,WNW,288,0.0,0.0,76,0.00,,SCT025,0.00,VWS V14.01,2013-07-20 17:37:00,
2013-07-20 12:42:00,78.2,68.8,29.96,WNW,288,0.0,0.0,73,0.00,,SCT029,0.00,VWS V14.01,2013-07-20 17:42:00,
2013-07-20 12:47:00,78.2,68.8,29.96,WNW,288,0.0,1.0,73,0.00,,SCT029,0.00,VWS V14.01,2013-07-20 17:47:00,
2013-07-20 12:52:00,78.5,69.9,29.96,WNW,288,0.0,0.0,75,0.00,,SCT029,0.00,VWS V14.01,2013-07-20 17:52:00,
2013-07-20 12:57:00,78.6,66.7,29.96,SW,234,0.0,2.0,67,0.00,,SCT029,0.00,VWS V14.01,2013-07-20 17:57:00,
2013-07-20 13:03:00,78.9,69.1,29.95,SW,236,0.0,0.0,72,0.00,,BKN044,0.00,VWS V14.01,2013-07-20 18:03:00,
2013-07-20 13:08:00,78.9,68.3,29.95,SW,236,0.0,0.0,70,0.00,,BKN044,0.00,VWS V14.01,2013-07-20 18:08:00,
2013-07-20 13:13:00,79.0,67.6,29.95,WSW,242,0.0,0.0,68,0.00,,BKN044,0.00,VWS V14.01,2013-07-20 18:13:00,
2013-07-20 13:18:00,78.9,67.9,29.95,WSW,242,0.0,0.0,69,0.00,,BKN044,0.00,VWS V14.01,2013-07-20 18:18:00,
2013-07-20 13:23:00,78.8,68.2,29.95,WSW,242,0.0,0.0,70,0.00,,BKN042,0.00,VWS V14.01,2013-07-20 18:23:00,
2013-07-20 13:29:00,78.8,67.8,29.95,WSW,242,0.0,0.0,69,0.00,,BKN042,0.00,VWS V14.01,2013-07-20 18:29:00,
2013-07-20 13:34:00,78.7,67.7,29.95,WSW,242,0.0,0.0,69,0.00,,BKN042,0.00,VWS V14.01,2013-07-20 18:34:00,
2013-07-20 13:39:00,78.2,68.0,29.95,WSW,242,0.0,0.0,71,0.00,,BKN042,0.00,VWS V14.01,2013-07-20 18:39:00,
2013-07-20 13:44:00,78.1,68.3,29.95,WSW,242,0.0,0.0,72,0.00,,BKN050,0.00,VWS V14.01,2013-07-20 18:44:00,
2013-07-20 13:49:00,78.4,67.8,29.94,WSW,242,0.0,0.0,70,0.00,,BKN050,0.00,VWS V14.01,2013-07-20 18:49:00,
2013-07-20 13:54:00,78.9,69.5,29.94,WSW,242,0.0,0.0,73,0.00,,BKN050,0.00,VWS V14.01,2013-07-20 18:54:00,
2013-07-20 13:59:00,79.2,67.7,29.94,WSW,242,0.0,0.0,68,0.00,,BKN050,0.00,VWS V14.01,2013-07-20 18:59:00,
2013-07-20 14:05:00,79.7,69.5,29.94,WSW,242,0.0,0.0,71,0.00,,BKN060,0.00,VWS V14.01,2013-07-20 19:05:00,
2013-07-20 14:10:00,79.4,67.1,29.94,WSW,239,0.0,0.0,66,0.00,,BKN060,0.00,VWS V14.01,2013-07-20 19:10:00,
2013-07-20 14:15:00,79.9,68.8,29.94,West,259,0.0,1.0,69,0.00,,BKN060,0.00,VWS V14.01,2013-07-20 19:15:00,
2013-07-20 14:20:00,79.9,68.0,29.94,West,259,0.0,0.0,67,0.00,,OVC050,0.00,VWS V14.01,2013-07-20 19:20:00,
2013-07-20 14:26:00,79.4,68.3,29.94,West,259,0.0,0.0,69,0.00,,OVC050,0.00,VWS V14.01,2013-07-20 19:26:00,
2013-07-20 14:31:00,78.9,68.3,29.94,West,259,0.0,0.0,70,0.00,,OVC050,0.00,VWS V14.01,2013-07-20 19:31:00,
2013-07-20 14:36:00,78.0,68.7,29.94,West,259,0.0,0.0,73,0.00,,OVC050,0.00,VWS V14.01,2013-07-20 19:36:00,
2013-07-20 14:41:00,77.7,68.0,29.94,West,259,0.0,0.0,72,0.00,,SCT050,0.00,VWS V14.01,2013-07-20 19:41:00,
2013-07-20 14:48:00,77.5,68.6,29.93,West,259,0.0,0.0,74,0.00,,SCT050,0.00,VWS V14.01,2013-07-20 19:48:00,
2013-07-20 14:53:00,77.6,69.4,29.93,West,259,0.0,0.0,76,0.00,,SCT050,0.00,VWS V14.01,2013-07-20 19:53:00,
2013-07-20 14:58:00,77.4,67.3,29.93,West,259,0.0,0.0,71,0.00,,SCT050,0.00,VWS V14.01,2013-07-20 19:58:00,
2013-07-20 15:04:00,77.2,66.7,29.93,West,259,0.0,0.0,70,0.00,,SCT048,0.00,VWS V14.01,2013-07-20 20:04:00,
2013-07-20 15:09:00,77.0,65.6,29.93,West,259,0.0,0.0,68,0.00,,SCT048,0.00,VWS V14.01,2013-07-20 20:09:00,
2013-07-20 15:14:00,77.3,68.8,29.93,West,259,0.0,0.0,75,0.00,,SCT048,0.00,VWS V14.01,2013-07-20 20:14:00,
2013-07-20 15:19:00,78.0,69.1,29.92,West,259,0.0,0.0,74,0.00,,SCT048,0.00,VWS V14.01,2013-07-20 20:19:00,
2013-07-20 15:24:00,78.7,67.7,29.92,West,259,0.0,0.0,69,0.00,,SCT048,0.00,VWS V14.01,2013-07-20 20:24:00,
2013-07-20 15:29:00,79.6,69.8,29.92,West,259,0.0,0.0,72,0.00,,SCT048,0.00,VWS V14.01,2013-07-20 20:29:00,
2013-07-20 15:34:00,79.8,66.1,29.92,West,259,3.0,3.0,63,0.00,,SCT048,0.00,VWS V14.01,2013-07-20 20:34:00,
2013-07-20 15:39:00,79.9,66.7,29.92,West,259,0.0,0.0,64,0.00,,SCT048,0.00,VWS V14.01,2013-07-20 20:39:00,
2013-07-20 15:45:00,79.7,67.3,29.92,West,259,0.0,0.0,66,0.00,,SCT050,0.00,VWS V14.01,2013-07-20 20:45:00,
2013-07-20 15:50:00,79.8,66.1,29.92,West,259,0.0,1.0,63,0.00,,SCT050,0.00,VWS V14.01,2013-07-20 20:50:00,
2013-07-20 15:55:00,80.0,67.6,29.93,West,259,0.0,0.0,66,0.00,,SCT050,0.00,VWS V14.01,2013-07-20 20:55:00,
2013-07-20 16:00:00,79.7,66.9,29.93,West,259,0.0,0.0,65,0.00,,CLR,0.00,VWS V14.01,2013-07-20 21:00:00,
2013-07-20 16:06:00,80.2,66.5,29.93,SSE,151,0.0,1.0,63,0.00,,CLR,0.00,VWS V14.01,2013-07-20 21:06:00,
2013-07-20 16:12:00,80.4,65.7,29.93,SSE,152,0.0,1.0,61,0.00,,CLR,0.00,VWS V14.01,2013-07-20 21:12:00,
2013-07-20 16:17:00,80.2,66.5,29.93,SSE,152,0.0,0.0,63,0.00,,CLR,0.00,VWS V14.01,2013-07-20 21:17:00,
2013-07-20 16:22:00,80.7,68.7,29.93,SSE,152,0.0,1.0,67,0.00,,CLR,0.00,VWS V14.01,2013-07-20 21:22:00,
2013-07-20 16:27:00,81.0,65.8,29.93,SSE,152,0.0,1.0,60,0.00,,CLR,0.00,VWS V14.01,2013-07-20 21:27:00,
2013-07-20 16:33:00,81.1,67.8,29.94,SSE,152,0.0,0.0,64,0.00,,CLR,0.00,VWS V14.01,2013-07-20 21:33:00,
2013-07-20 16:38:00,81.1,67.3,29.94,SSE,152,0.0,0.0,63,0.00,,CLR,0.00,VWS V14.01,2013-07-20 21:38:00,
2013-07-20 16:44:00,81.2,67.9,29.93,SSE,152,0.0,0.0,64,0.00,,SCT050,0.00,VWS V14.01,2013-07-20 21:44:00,
2013-07-20 16:49:00,81.1,70.4,29.93,SSE,152,0.0,0.0,70,0.00,,SCT050,0.00,VWS V14.01,2013-07-20 21:49:00,
2013-07-20 16:54:00,81.1,65.4,29.93,SSE,152,0.0,0.0,59,0.00,,SCT050,0.00,VWS V14.01,2013-07-20 21:54:00,
2013-07-20 16:59:00,81.4,68.5,29.93,SSE,152,0.0,0.0,65,0.00,,SCT050,0.00,VWS V14.01,2013-07-20 21:59:00,
2013-07-20 17:04:00,81.5,70.4,29.93,SSE,152,0.0,0.0,69,0.00,,BKN050,0.00,VWS V14.01,2013-07-20 22:04:00,
2013-07-20 17:10:00,81.7,70.6,29.93,SSE,152,0.0,0.0,69,0.00,,BKN050,0.00,VWS V14.01,2013-07-20 22:10:00,
2013-07-20 17:16:00,82.0,67.7,29.93,SSE,152,0.0,0.0,62,0.00,,BKN050,0.00,VWS V14.01,2013-07-20 22:16:00,
2013-07-20 17:21:00,82.2,68.4,29.93,SSE,152,0.0,0.0,63,0.00,,OVC050,0.00,VWS V14.01,2013-07-20 22:21:00,
2013-07-20 17:27:00,82.4,67.6,29.92,SSE,152,0.0,0.0,61,0.00,,OVC050,0.00,VWS V14.01,2013-07-20 22:27:00,
2013-07-20 17:32:00,82.5,68.2,29.92,SSE,152,0.0,0.0,62,0.00,,OVC050,0.00,VWS V14.01,2013-07-20 22:32:00,
2013-07-20 17:38:00,82.5,67.7,29.92,SSE,152,0.0,1.0,61,0.00,,OVC050,0.00,VWS V14.01,2013-07-20 22:38:00,
2013-07-20 17:43:00,82.3,65.6,29.92,SSE,152,0.0,0.0,57,0.00,,OVC050,0.00,VWS V14.01,2013-07-20 22:43:00,
2013-07-20 17:48:00,82.3,65.6,29.92,SSE,152,0.0,0.0,57,0.00,,OVC050,0.00,VWS V14.01,2013-07-20 22:48:00,
2013-07-20 17:53:00,81.9,68.1,29.92,SSE,152,0.0,0.0,63,0.00,,OVC050,0.00,VWS V14.01,2013-07-20 22:53:00,
2013-07-20 17:59:00,81.2,66.5,29.92,SSE,152,0.0,0.0,61,0.00,,OVC050,0.00,VWS V14.01,2013-07-20 22:59:00,
2013-07-20 18:04:00,80.9,66.2,29.92,SSE,152,0.0,0.0,61,0.00,,BKN055,0.00,VWS V14.01,2013-07-20 23:04:00,
2013-07-20 18:09:00,81.3,66.6,29.92,SSE,152,0.0,0.0,61,0.00,,BKN055,0.00,VWS V14.01,2013-07-20 23:09:00,
2013-07-20 18:14:00,81.8,67.1,29.92,SSE,152,0.0,0.0,61,0.00,,BKN055,0.00,VWS V14.01,2013-07-20 23:14:00,
2013-07-20 18:19:00,81.8,66.6,29.91,SSE,152,0.0,1.0,60,0.00,,BKN055,0.00,VWS V14.01,2013-07-20 23:19:00,
2013-07-20 18:25:00,81.7,68.3,29.92,SSE,152,0.0,0.0,64,0.00,,BKN070,0.00,VWS V14.01,2013-07-20 23:25:00,
2013-07-20 18:30:00,81.2,66.9,29.92,SSE,152,0.0,0.0,62,0.00,,BKN070,0.00,VWS V14.01,2013-07-20 23:30:00,
2013-07-20 18:35:00,81.2,67.4,29.91,SSE,152,0.0,0.0,63,0.00,,BKN070,0.00,VWS V14.01,2013-07-20 23:35:00,
2013-07-20 18:41:00,81.0,65.8,29.92,SSE,152,0.0,0.0,60,0.00,,BKN055,0.00,VWS V14.01,2013-07-20 23:41:00,
2013-07-20 18:46:00,80.2,66.5,29.92,SSE,152,0.0,0.0,63,0.00,,BKN055,0.00,VWS V14.01,2013-07-20 23:46:00,
2013-07-20 18:51:00,79.6,66.8,29.92,SSE,152,0.0,0.0,65,0.00,,BKN055,0.00,VWS V14.01,2013-07-20 23:51:00,
2013-07-20 18:56:00,79.2,66.4,29.92,SSE,152,0.0,0.0,65,0.00,,BKN055,0.00,VWS V14.01,2013-07-20 23:56:00,
2013-07-20 19:01:00,78.9,66.6,29.92,SSE,152,0.0,0.0,66,0.00,,OVC060,0.00,VWS V14.01,2013-07-21 00:01:00,
2013-07-20 19:06:00,78.5,66.2,29.92,SSE,152,0.0,0.0,66,0.00,,OVC060,0.00,VWS V14.01,2013-07-21 00:06:00,
2013-07-20 19:11:00,78.1,66.3,29.92,SSE,152,0.0,0.0,67,0.00,,OVC060,0.00,VWS V14.01,2013-07-21 00:11:00,
2013-07-20 19:16:00,77.9,66.5,29.92,SSE,152,0.0,0.0,68,0.00,,OVC060,0.00,VWS V14.01,2013-07-21 00:16:00,
2013-07-20 19:22:00,77.6,67.1,29.92,SSE,152,0.0,0.0,70,0.00,,OVC060,0.00,VWS V14.01,2013-07-21 00:22:00,
2013-07-20 19:27:00,77.1,67.0,29.91,SSE,152,0.0,0.0,71,0.00,,OVC060,0.00,VWS V14.01,2013-07-21 00:27:00,
2013-07-20 19:32:00,76.6,66.9,29.91,SSE,152,0.0,0.0,72,0.00,,OVC060,0.00,VWS V14.01,2013-07-21 00:32:00,
2013-07-20 19:37:00,76.0,65.5,29.92,SSE,152,0.0,0.0,70,0.00,,OVC060,0.00,VWS V14.01,2013-07-21 00:37:00,
2013-07-20 19:43:00,75.5,65.4,29.91,SSE,152,0.0,0.0,71,0.00,,SCT070,0.00,VWS V14.01,2013-07-21 00:43:00,
2013-07-20 19:48:00,75.1,65.1,29.92,SSE,152,0.0,0.0,71,0.00,,SCT070,0.00,VWS V14.01,2013-07-21 00:48:00,
2013-07-20 19:53:00,74.8,65.2,29.92,SSE,152,0.0,0.0,72,0.00,,SCT070,0.00,VWS V14.01,2013-07-21 00:53:00,
2013-07-20 19:58:00,74.6,65.0,29.92,SSE,152,0.0,0.0,72,0.00,,SCT070,0.00,VWS V14.01,2013-07-21 00:58:00,
2013-07-20 20:03:00,74.3,65.1,29.92,SSE,152,0.0,2.0,73,0.00,,SCT046,0.00,VWS V14.01,2013-07-21 01:03:00,
2013-07-20 20:08:00,74.0,65.2,29.92,SSE,152,0.0,0.0,74,0.00,,SCT046,0.00,VWS V14.01,2013-07-21 01:08:00,
2013-07-20 20:13:00,73.7,64.9,29.92,SSE,152,0.0,0.0,74,0.00,,SCT046,0.00,VWS V14.01,2013-07-21 01:13:00,
2013-07-20 20:18:00,73.4,64.6,29.92,SSE,152,0.0,0.0,74,0.00,,SCT046,0.00,VWS V14.01,2013-07-21 01:18:00,
2013-07-20 20:24:00,73.1,64.7,29.92,SSE,152,0.0,0.0,75,0.00,,SCT046,0.00,VWS V14.01,2013-07-21 01:24:00,
2013-07-20 20:29:00,72.7,64.7,29.92,SSE,152,0.0,0.0,76,0.00,,SCT046,0.00,VWS V14.01,2013-07-21 01:29:00,
2013-07-20 20:34:00,72.4,64.8,29.93,SSE,152,0.0,0.0,77,0.00,,SCT046,0.00,VWS V14.01,2013-07-21 01:34:00,
2013-07-20 20:41:00,72.0,64.4,29.93,SSE,152,0.0,0.0,77,0.00,,CLR,0.00,VWS V14.01,2013-07-21 01:41:00,
2013-07-20 20:46:00,71.7,64.5,29.93,SSE,152,0.0,0.0,78,0.00,,CLR,0.00,VWS V14.01,2013-07-21 01:46:00,
2013-07-20 20:51:00,71.5,65.0,29.93,SSE,152,0.0,0.0,80,0.00,,CLR,0.00,VWS V14.01,2013-07-21 01:51:00,
2013-07-20 20:56:00,71.3,65.2,29.93,SSE,152,0.0,0.0,81,0.00,,CLR,0.00,VWS V14.01,2013-07-21 01:56:00,
2013-07-20 21:02:00,71.1,65.0,29.93,SSE,152,0.0,0.0,81,0.00,,SCT044,0.00,VWS V14.01,2013-07-21 02:02:00,
2013-07-20 21:07:00,70.7,64.6,29.93,SSE,152,0.0,0.0,81,0.00,,SCT044,0.00,VWS V14.01,2013-07-21 02:07:00,
2013-07-20 21:12:00,70.4,64.3,29.93,SSE,152,0.0,0.0,81,0.00,,SCT044,0.00,VWS V14.01,2013-07-21 02:12:00,
2013-07-20 21:18:00,70.1,64.0,29.93,SSE,152,0.0,0.0,81,0.00,,SCT044,0.00,VWS V14.01,2013-07-21 02:18:00,
2013-07-20 21:23:00,69.7,63.6,29.93,SSE,152,0.0,0.0,81,0.00,,CLR,0.00,VWS V14.01,2013-07-21 02:23:00,
2013-07-20 21:28:00,69.4,63.3,29.93,SSE,152,0.0,0.0,81,0.00,,CLR,0.00,VWS V14.01,2013-07-21 02:28:00,
2013-07-20 21:33:00,69.1,63.4,29.93,SSE,152,0.0,0.0,82,0.00,,CLR,0.00,VWS V14.01,2013-07-21 02:33:00,
2013-07-20 21:38:00,68.8,63.1,29.94,SSE,152,0.0,0.0,82,0.00,,CLR,0.00,VWS V14.01,2013-07-21 02:38:00,
2013-07-20 21:44:00,68.5,62.5,29.94,SSE,152,0.0,0.0,81,0.00,,CLR,0.00,VWS V14.01,2013-07-21 02:44:00,
2013-07-20 21:50:00,68.2,62.2,29.94,SSE,152,0.0,0.0,81,0.00,,CLR,0.00,VWS V14.01,2013-07-21 02:50:00,
2013-07-20 21:55:00,67.9,61.5,29.94,SSE,152,0.0,0.0,80,0.00,,CLR,0.00,VWS V14.01,2013-07-21 02:55:00,
2013-07-20 22:01:00,67.7,61.3,29.94,SSE,152,0.0,0.0,80,0.00,,CLR,0.00,VWS V14.01,2013-07-21 03:01:00,
2013-07-20 22:07:00,67.5,61.5,29.94,SSE,152,0.0,0.0,81,0.00,,CLR,0.00,VWS V14.01,2013-07-21 03:07:00,
2013-07-20 22:12:00,67.3,61.3,29.95,SSE,152,0.0,0.0,81,0.00,,CLR,0.00,VWS V14.01,2013-07-21 03:12:00,
2013-07-20 22:18:00,67.1,61.1,29.95,SSE,152,0.0,0.0,81,0.00,,CLR,0.00,VWS V14.01,2013-07-21 03:18:00,
2013-07-20 22:23:00,66.9,60.9,29.95,SSE,152,0.0,0.0,81,0.00,,CLR,0.00,VWS V14.01,2013-07-21 03:23:00,
2013-07-20 22:28:00,66.8,61.1,29.95,SSE,152,0.0,0.0,82,0.00,,CLR,0.00,VWS V14.01,2013-07-21 03:28:00,
2013-07-20 22:33:00,66.6,60.9,29.95,SSE,152,0.0,0.0,82,0.00,,CLR,0.00,VWS V14.01,2013-07-21 03:33:00,
2013-07-20 22:38:00,66.4,60.7,29.95,SSE,152,0.0,0.0,82,0.00,,CLR,0.00,VWS V14.01,2013-07-21 03:38:00,
2013-07-20 22:43:00,66.3,60.7,29.96,SSE,152,0.0,0.0,82,0.00,,CLR,0.00,VWS V14.01,2013-07-21 03:43:00,
2013-07-20 22:48:00,66.1,60.5,29.96,SSE,152,0.0,0.0,82,0.00,,CLR,0.00,VWS V14.01,2013-07-21 03:48:00,
2013-07-20 22:53:00,66.0,60.3,29.97,SSE,152,0.0,0.0,82,0.00,,CLR,0.00,VWS V14.01,2013-07-21 03:53:00,
2013-07-20 22:59:00,65.9,60.6,29.97,SSE,152,0.0,0.0,83,0.00,,CLR,0.00,VWS V14.01,2013-07-21 03:59:00,
2013-07-20 23:01:00,65.9,60.6,29.97,SSE,152,0.0,0.0,83,0.00,,CLR,0.00,VWS V14.01,2013-07-21 04:01:00,
2013-07-20 23:02:00,65.8,60.5,29.97,SSE,152,0.0,0.0,83,0.00,,CLR,0.00,VWS V14.01,2013-07-21 04:02:00,
2013-07-20 23:03:00,65.8,60.5,29.97,SSE,152,0.0,0.0,83,0.00,,CLR,0.00,VWS V14.01,2013-07-21 04:03:00,
2013-07-20 23:04:00,65.8,60.5,29.97,SSE,152,0.0,0.0,83,0.00,,CLR,0.00,VWS V14.01,2013-07-21 04:04:00,
2013-07-20 23:05:00,65.8,60.5,29.97,SSE,152,0.0,0.0,83,0.00,,CLR,0.00,VWS V14.01,2013-07-21 04:05:00,
2013-07-20 23:10:00,65.8,60.5,29.97,SSE,152,0.0,0.0,83,0.00,,CLR,0.00,VWS V14.01,2013-07-21 04:10:00,
2013-07-20 23:15:00,65.8,60.5,29.97,SSE,152,0.0,0.0,83,0.00,,CLR,0.00,VWS V14.01,2013-07-21 04:15:00,
2013-07-20 23:20:00,65.8,60.5,29.97,SSE,152,0.0,0.0,83,0.00,,SCT060,0.00,VWS V14.01,2013-07-21 04:20:00,
2013-07-20 23:25:00,65.7,60.4,29.97,SSE,152,0.0,0.0,83,0.00,,SCT060,0.00,VWS V14.01,2013-07-21 04:25:00,
2013-07-20 23:30:00,65.7,60.4,29.97,SSE,152,0.0,0.0,83,0.00,,SCT060,0.00,VWS V14.01,2013-07-21 04:30:00,
2013-07-20 23:35:00,65.7,60.4,29.97,SSE,152,0.0,0.0,83,0.00,,SCT060,0.00,VWS V14.01,2013-07-21 04:35:00,
2013-07-20 23:40:00,65.6,60.3,29.96,SSE,152,0.0,0.0,83,0.00,,SCT060,0.00,VWS V14.01,2013-07-21 04:40:00,
2013-07-20 23:45:00,65.5,60.2,29.96,SSE,152,0.0,0.0,83,0.00,,SCT060,0.00,VWS V14.01,2013-07-21 04:45:00,
2013-07-20 23:50:00,65.5,60.5,29.96,SSE,152,0.0,0.0,84,0.00,,SCT060,0.00,VWS V14.01,2013-07-21 04:50:00,
2013-07-20 23:55:00,65.5,60.5,29.96,SSE,152,0.0,0.0,84,0.00,,SCT060,0.00,VWS V14.01,2013-07-21 04:55:00,